[[{"header":{"parameterUnit":"m.s-1","parameterCategory":2,"la1":30.2991,"la2":30.254,"lo1":-89.0895,"lo2":-89.0444,"dy":0.0017,"dx":0.0017,"nx":28,"ny":28,"refTime":"2025-06-06T09:00:00:Z","depth":"0","parameterNumber":2,"parameterNumberName":"U-component_of_CURRENTS"},"data":[0,0,0,0,0,0,0,0,0,0,0,0,0,0,0,0,0,0,0,0,0,0,0,0,0,0,0,0,0,0,0,0,0,0,0,0,0,0,0,0,0,0,0,0,0,0,0,0,0,0,0,0,0,0,0,0,0,0,0.2892,0.2892,0,0.2887,0.2887,0.2887,0.2907,0.2907,0.2908,0.2908,0.2957,0.2958,0.2959,0,0,0,0,0,0,0,0,0,0,0,0,0,0.2975,0.2973,0.2892,0.2892,0.2892,0.2887,0.2887,0.2887,0.2907,0.2907,0.2908,0.2909,0.2957,0.2958,0.2959,0,0,0,0,0,0,0,0,0,0,0,0,0,0.2951,0.2973,0.2892,0.2901,0.2902,0.2887,0.2887,0.2887,0.2906,0.2907,0.2908,0.2909,0.2957,0.2958,0.2959,0.2948,0,0,0.2963,0.2963,0,0,0,0,0,0,0,0,0.2952,0.2948,0.29,0.2901,0.2901,0.2898,0.2934,0.291,0.2906,0.2905,0.2908,0.2909,0.2942,0.2944,0.2941,0.295,0.2952,0.2963,0.2963,0.2964,0.2964,0,0,0,0,0,0,0,0.2954,0.2949,0.289,0.29,0.2901,0.2925,0.2922,0.293,0.2919,0.2905,0.2906,0.2906,0.2943,0.2939,0.2942,0.2953,0.2963,0.2964,0.2964,0.2965,0.2989,0.2989,0,0,0,0,0,0,0.295,0.295,0.289,0.289,0.293,0.2922,0.2919,0.2898,0.2918,0.2922,0.2905,0.2906,0.2937,0.2941,0.2944,0.2938,0.2964,0.2965,0.2965,0.2989,0.2989,0.2989,0,0,0,0,0,0,0.2952,0.2944,0.289,0.2921,0.2916,0.292,0.2896,0.2898,0.2893,0.2917,0.2922,0.2899,0.2938,0.2942,0.2951,0.294,0.2965,0.2966,0.2989,0.2989,0.2989,0.2922,0,0,0,0,0,0,0.2954,0.2944,0.2928,0.292,0.2914,0.287,0.2896,0.2897,0.2891,0.2894,0.2914,0.2919,0.2939,0.2949,0.2952,0.2942,0.2967,0.2989,0.2989,0.2989,0.2924,0.292,0.2916,0,0,0,0,0,0.2956,0.2919,0.2927,0.292,0.2891,0.2869,0.2867,0.2875,0.289,0.2876,0.29,0.2919,0.2952,0.295,0.2953,0.2943,0.2989,0.2989,0.2989,0.2926,0.2921,0.2916,0,0,0,0,0,0,0.293,0.2918,0.2926,0.2883,0.2876,0.2872,0.2855,0.2868,0.2874,0.2879,0.2911,0.2917,0.2927,0.2944,0.2941,0.2953,0.2976,0.2977,0.2927,0.2922,0.2918,0.2905,0.2968,0,0,0,0,0,0.2921,0.2897,0.2892,0.2855,0.2849,0.2854,0.2848,0.2854,0.2858,0.2861,0.2877,0.2902,0.2928,0.2932,0.2954,0.2948,0.2977,0.2948,0.2944,0.294,0.2933,0.2996,0.2996,0.2989,0.2989,0.2989,0,0,0.2899,0.289,0.2874,0.285,0.2843,0.2821,0.2851,0.283,0.2819,0.2866,0.2851,0.2887,0.2927,0.2929,0.2934,0.294,0.295,0.294,0.2936,0.2931,0.2996,0.2997,0.2997,0.2989,0.2989,0.2989,0,0,0.2841,0.2833,0.2798,0.2793,0.2784,0.2787,0.278,0.2775,0.2781,0.2775,0.282,0.2845,0.2863,0.2891,0.2911,0.2894,0.2933,0.2906,0.2861,0.2922,0.2923,0.2924,0.2928,0.293,0.2895,0.2895,0.2895,0,0.2814,0.2772,0.2783,0.2754,0.2743,0.2769,0.2734,0.2739,0.2741,0.2747,0.2762,0.2814,0.2844,0.2869,0.2866,0.2883,0.2911,0.2874,0.2916,0.2918,0.2921,0.2924,0.2928,0.2891,0.2892,0.2892,0.2892,0,0.2739,0.2711,0.2686,0.2663,0.2654,0.2623,0.2639,0.2636,0.2653,0.2668,0.2693,0.274,0.2773,0.279,0.2821,0.2853,0.2863,0.2909,0.2925,0.2917,0.2921,0.2926,0.2887,0.2888,0.2889,0.289,0,0,0.2647,0.2636,0.2625,0.2616,0.2606,0.2589,0.2575,0.2571,0.2571,0.2593,0.2597,0.2649,0.2687,0.2714,0.2763,0.2809,0.2841,0.2859,0.2864,0.2853,0.294,0.2786,0.2777,0.2906,0.2907,0.2908,0.2922,0,0.2579,0.2525,0.2533,0.2482,0.2457,0.2486,0.2472,0.2483,0.2505,0.2517,0.2581,0.2606,0.2656,0.2678,0.2732,0.2832,0.2857,0.283,0.2957,0.2959,0.2818,0.2779,0.2606,0.2591,0.2927,0.2928,0.2928,0,0.2493,0.2476,0.2419,0.2414,0.2403,0.238,0.2378,0.2373,0.2411,0.2433,0.2476,0.2531,0.2594,0.2646,0.2779,0.2766,0.2836,0.2904,0.2908,0.2792,0.2815,0.2662,0.2587,0.2486,0.2936,0.2936,0.2935,0,0.243,0.2392,0.2351,0.2344,0.2339,0.2323,0.2321,0.2342,0.2343,0.2385,0.2391,0.2481,0.2523,0.2645,0.2759,0.2787,0.2898,0.2959,0.2873,0.2862,0.275,0.2725,0.2584,0.3039,0.3039,0.3039,0.3039,0,0.2352,0.2316,0.2322,0.2299,0.2258,0.2273,0.2237,0.2256,0.2278,0.2272,0.2346,0.2361,0.2535,0.2612,0.2733,0.2785,0.2875,0.2839,0.2854,0.2714,0.2688,0.2625,0.2594,0.3039,0.3039,0.3039,0.3039,0,0.2278,0.2281,0.224,0.2232,0.2225,0.2196,0.2183,0.2169,0.2194,0.219,0.22,0.2284,0.2368,0.2498,0.2677,0.2713,0.2697,0.2806,0.2586,0.2572,0.2364,0.2337,0.2165,0.2131,0.2702,0.2698,0.2695,0,0.2226,0.2203,0.2188,0.2171,0.2161,0.2129,0.2107,0.2124,0.2112,0.2137,0.2131,0.219,0.2215,0.2356,0.244,0.2544,0.2543,0.2425,0.2437,0.2283,0.2269,0.2224,0.2209,0.2265,0.2258,0.2253,0.2249,0,0.2141,0.2146,0.2129,0.2101,0.2072,0.2035,0.2008,0.1986,0.2001,0.1991,0.199,0.2008,0.2078,0.2073,0.2152,0.2226,0.2229,0.2315,0.2246,0.1954,0.1811,0.1808,0.2299,0.2202,0.2206,0.221,0.2212,0.2214,0.2079,0.2059,0.2054,0.202,0.1993,0.194,0.1883,0.1864,0.1823,0.1782,0.1844,0.18,0.1777,0.1848,0.1893,0.1775,0.1898,0.1743,0.1736,0.1717,0.1613,0.1941,0.1805,0.1807,0.1809,0.1811,0.1813,0,0.1992,0.1993,0.1972,0.1925,0.1875,0.1881,0.1814,0.1746,0.1668,0.1641,0.1614,0.1481,0.1405,0.1407,0.1289,0.1214,0.1253,0.1185,0.1116,0.1154,0.1515,0.1424,0.1086,0.1086,0.1086,0.1086,0.1086,0.1087,0.1948,0.1912,0.1914,0.1821,0.1788,0.1681,0.1629,0.1543,0.1487,0.1334,0.1222,0.1192,0.1087,0.0877,0.074,0.0753,0.0739,0.063,0.0747,0.1006,0.106,0.1111,0.1017,0.06,0.0599,0.0341,0.0338,0.0336]},{"header":{"parameterUnit":"m.s-1","parameterCategory":2,"la1":30.2991,"la2":30.254,"lo1":-89.0895,"lo2":-89.0444,"dy":0.0017,"dx":0.0017,"nx":28,"ny":28,"refTime":"2025-06-06T09:00:00:Z","depth":"0","parameterNumber":3,"parameterNumberName":"V-component_of_CURRENTS"},"data":[0,0,0,0,0,0,0,0,0,0,0,0,0,0,0,0,0,0,0,0,0,0,0,0,0,0,0,0,0,0,0,0,0,0,0,0,0,0,0,0,0,0,0,0,0,0,0,0,0,0,0,0,0,0,0,0,0,0,0.0872,0.0873,0,0.0972,0.0973,0.0975,0.1023,0.1022,0.1022,0.1022,0.1055,0.1057,0.1058,0,0,0,0,0,0,0,0,0,0,0,0,0,0.0796,0.0797,0.0872,0.0873,0.0874,0.0972,0.0973,0.0975,0.1023,0.1022,0.1022,0.1022,0.1055,0.1057,0.1058,0,0,0,0,0,0,0,0,0,0,0,0,0,0.0858,0.0797,0.0872,0.0908,0.0912,0.0971,0.0973,0.0975,0.1023,0.1022,0.1022,0.1021,0.1055,0.1056,0.1058,0.1078,0,0,0.1064,0.1064,0,0,0,0,0,0,0,0,0.0855,0.0861,0.0901,0.0905,0.091,0.0982,0.0959,0.1006,0.1023,0.0984,0.1022,0.1021,0.1023,0.1027,0.1052,0.108,0.1081,0.1064,0.1065,0.1066,0.1066,0,0,0,0,0,0,0,0.085,0.0858,0.0915,0.0902,0.0907,0.0943,0.0951,0.0969,0.1006,0.0987,0.099,0.0996,0.1025,0.1051,0.1053,0.1082,0.1064,0.1065,0.1066,0.1067,0.1129,0.1129,0,0,0,0,0,0,0.0829,0.0853,0.0912,0.0917,0.0877,0.0944,0.0953,0.0962,0.1007,0.1013,0.0997,0.0998,0.1048,0.1051,0.1054,0.1097,0.1066,0.1067,0.1068,0.1128,0.1129,0.113,0,0,0,0,0,0,0.0827,0.0833,0.0908,0.0885,0.0897,0.0945,0.0955,0.0964,0.0988,0.1015,0.102,0.1011,0.1048,0.1052,0.1088,0.1098,0.1068,0.107,0.1128,0.1129,0.1129,0.1172,0,0,0,0,0,0,0.0824,0.0832,0.0833,0.0884,0.0897,0.0945,0.0955,0.0966,0.0992,0.0995,0.1029,0.1032,0.1048,0.1086,0.109,0.11,0.1071,0.1127,0.1128,0.1129,0.117,0.1174,0.1178,0,0,0,0,0,0.0821,0.0821,0.0832,0.0839,0.0896,0.0946,0.0957,0.0992,0.0992,0.1011,0.1041,0.1031,0.1094,0.1089,0.1093,0.1104,0.1126,0.1128,0.1129,0.1168,0.1173,0.1178,0,0,0,0,0,0,0.0784,0.0828,0.0841,0.0853,0.0896,0.0952,0.0966,0.099,0.1031,0.1028,0.1052,0.1058,0.1092,0.109,0.1083,0.1122,0.1103,0.1105,0.1131,0.1136,0.114,0.1135,0.1073,0,0,0,0,0,0.0776,0.0791,0.084,0.085,0.0867,0.0916,0.0939,0.0966,0.1006,0.1023,0.1051,0.1073,0.1102,0.1113,0.1137,0.1162,0.1147,0.1166,0.117,0.1174,0.1172,0.1173,0.1177,0.1134,0.1134,0.1134,0,0,0.0763,0.0789,0.0797,0.0844,0.0876,0.0916,0.0929,0.0963,0.1002,0.1018,0.1071,0.1092,0.1113,0.1152,0.1163,0.1151,0.1177,0.1175,0.1179,0.1175,0.1174,0.1179,0.1182,0.1135,0.1135,0.1135,0,0,0.0754,0.0768,0.0783,0.0822,0.087,0.0907,0.0914,0.0974,0.1003,0.1058,0.1079,0.1109,0.1151,0.1178,0.1192,0.1227,0.1202,0.1225,0.1241,0.1242,0.1245,0.1248,0.1228,0.1229,0.1222,0.1222,0.1222,0,0.0733,0.0766,0.0796,0.0829,0.0861,0.0901,0.0936,0.0978,0.1047,0.1074,0.1072,0.1151,0.1165,0.1217,0.1232,0.1237,0.1225,0.1224,0.1247,0.125,0.1252,0.1231,0.1231,0.1225,0.1224,0.1224,0.1224,0,0.0748,0.0778,0.0789,0.0847,0.0886,0.0919,0.0979,0.102,0.1051,0.1095,0.1152,0.1186,0.1228,0.1236,0.1249,0.1277,0.1259,0.1257,0.1235,0.1259,0.1235,0.1235,0.1228,0.1227,0.1226,0.1226,0,0,0.069,0.0781,0.0785,0.0823,0.0899,0.0933,0.0993,0.1063,0.1101,0.1155,0.1207,0.1257,0.1268,0.1285,0.1301,0.1302,0.1308,0.1286,0.1285,0.1267,0.1295,0.1267,0.1263,0.1311,0.1312,0.1312,0.1269,0,0.0692,0.0756,0.0805,0.087,0.0909,0.0971,0.1026,0.1092,0.1145,0.1205,0.1239,0.129,0.1289,0.1309,0.1315,0.1324,0.131,0.1318,0.1274,0.1272,0.1246,0.1264,0.1244,0.1204,0.1269,0.1269,0.1269,0,0.0692,0.074,0.0802,0.0894,0.0914,0.0957,0.1046,0.1104,0.1192,0.1228,0.1281,0.1318,0.1359,0.1338,0.1346,0.1353,0.132,0.1308,0.1306,0.1265,0.1244,0.1192,0.12,0.118,0.1268,0.1268,0.1268,0,0.0647,0.0736,0.0786,0.0819,0.0926,0.0959,0.1012,0.1103,0.1156,0.1241,0.1282,0.1337,0.1367,0.1352,0.1344,0.1344,0.1331,0.1325,0.126,0.1256,0.1222,0.1215,0.1206,0.1296,0.1296,0.1296,0.1296,0,0.0637,0.0675,0.0765,0.0794,0.0848,0.0929,0.099,0.1053,0.1144,0.1208,0.1282,0.134,0.1371,0.1385,0.1352,0.1312,0.1332,0.1262,0.1249,0.1235,0.1231,0.1196,0.1215,0.1295,0.1295,0.1295,0.1296,0,0.0591,0.0651,0.0708,0.0804,0.0831,0.0867,0.0968,0.1017,0.1104,0.1189,0.1219,0.1341,0.137,0.1375,0.1358,0.132,0.1276,0.1245,0.1221,0.1206,0.1131,0.1153,0.1139,0.1173,0.1175,0.1174,0.1173,0,0.0578,0.0604,0.0693,0.0721,0.0762,0.0825,0.0873,0.0977,0.1038,0.1191,0.1232,0.1311,0.1378,0.1358,0.1311,0.1245,0.1242,0.1159,0.1154,0.1125,0.114,0.1155,0.1188,0.112,0.1118,0.1118,0.1117,0,0.0551,0.0577,0.0625,0.0677,0.0722,0.0787,0.0864,0.0908,0.1041,0.1127,0.1251,0.1323,0.1346,0.1319,0.1241,0.1196,0.1177,0.1137,0.1121,0.111,0.1112,0.1139,0.1138,0.1109,0.111,0.111,0.1111,0.1111,0.0519,0.0539,0.0593,0.064,0.0691,0.0754,0.0798,0.0894,0.0995,0.114,0.1228,0.1322,0.1293,0.122,0.1175,0.1063,0.112,0.1014,0.1044,0.1061,0.1098,0.1069,0.1021,0.1021,0.1021,0.1021,0.1021,0,0.0486,0.0518,0.0558,0.062,0.0659,0.0704,0.0801,0.0854,0.0961,0.1096,0.1212,0.1227,0.1182,0.1123,0.0998,0.0963,0.0992,0.095,0.0973,0.1014,0.0985,0.0985,0.0909,0.0909,0.091,0.091,0.091,0.091,0.0472,0.0497,0.0525,0.0577,0.0619,0.0677,0.0728,0.0817,0.0916,0.104,0.1093,0.1161,0.1125,0.0987,0.091,0.0908,0.0955,0.0927,0.0983,0.0949,0.0957,0.0965,0.0967,0.0889,0.089,0.1003,0.1004,0.1005]}],[{"header":{"parameterUnit":"m.s-1","parameterCategory":2,"la1":30.2991,"la2":30.254,"lo1":-89.0895,"lo2":-89.0444,"dy":0.0017,"dx":0.0017,"nx":28,"ny":28,"refTime":"2025-06-06T09:00:00:Z","depth":"2","parameterNumber":2,"parameterNumberName":"U-component_of_CURRENTS"},"data":[0,0,0,0,0,0,0,0,0,0,0,0,0,0,0,0,0,0,0,0,0,0,0,0,0,0,0,0,0,0,0,0,0,0,0,0,0,0,0,0,0,0,0,0,0,0,0,0,0,0,0,0,0,0,0,0,0,0,0.2276,0.2277,0,0.2297,0.2296,0.2296,0.2335,0.2336,0.2337,0.2338,0.2393,0.2393,0.2394,0,0,0,0,0,0,0,0,0,0,0,0,0,0.2206,0.2207,0.2276,0.2277,0.2278,0.2297,0.2296,0.2296,0.2335,0.2336,0.2338,0.2339,0.2393,0.2393,0.2394,0,0,0,0,0,0,0,0,0,0,0,0,0,0.2227,0.2207,0.2276,0.2303,0.2306,0.2297,0.2296,0.2296,0.2334,0.2336,0.2338,0.234,0.2393,0.2393,0.2394,0.2358,0,0,0.2395,0.2395,0,0,0,0,0,0,0,0,0.2226,0.2229,0.2299,0.2302,0.2305,0.232,0.2292,0.2321,0.2334,0.2318,0.2339,0.2341,0.2374,0.2376,0.2367,0.2361,0.2363,0.2395,0.2395,0.2395,0.2396,0,0,0,0,0,0,0,0.2224,0.2228,0.2279,0.2299,0.2303,0.2293,0.2298,0.2297,0.2331,0.2319,0.2324,0.2334,0.2376,0.2367,0.2369,0.2364,0.2395,0.2395,0.2396,0.2396,0.2386,0.2386,0,0,0,0,0,0,0.2235,0.2227,0.2278,0.228,0.2276,0.2293,0.2299,0.2309,0.2331,0.2337,0.2332,0.2336,0.2365,0.2368,0.2371,0.2391,0.2395,0.2396,0.2396,0.2387,0.2386,0.2386,0,0,0,0,0,0,0.2233,0.2239,0.2277,0.2258,0.2263,0.2294,0.2304,0.2308,0.2331,0.2341,0.2348,0.2356,0.2367,0.2371,0.2394,0.2391,0.2396,0.2396,0.2388,0.2387,0.2386,0.2392,0,0,0,0,0,0,0.2231,0.2238,0.2245,0.2259,0.2265,0.2282,0.2303,0.2307,0.2336,0.2341,0.2363,0.2368,0.2368,0.2393,0.2394,0.2392,0.2397,0.2388,0.2387,0.2386,0.2392,0.2391,0.239,0,0,0,0,0,0.2228,0.222,0.2245,0.2251,0.2275,0.2282,0.2283,0.2307,0.2336,0.2336,0.2361,0.2369,0.2387,0.2393,0.2395,0.2393,0.2389,0.2387,0.2386,0.2392,0.2391,0.239,0,0,0,0,0,0,0.2204,0.2224,0.2251,0.2255,0.2279,0.2292,0.2298,0.232,0.2337,0.2355,0.2369,0.2374,0.2389,0.2388,0.2395,0.2385,0.2386,0.2385,0.239,0.2389,0.2388,0.2366,0.2397,0,0,0,0,0,0.2201,0.219,0.223,0.2232,0.2255,0.2285,0.2294,0.2314,0.2334,0.2345,0.236,0.2373,0.2376,0.2386,0.2384,0.2384,0.237,0.238,0.2379,0.2379,0.236,0.2339,0.2334,0.2382,0.2382,0.2382,0,0,0.2192,0.2202,0.2198,0.2224,0.2251,0.2261,0.2294,0.2317,0.2315,0.2347,0.2354,0.2374,0.2376,0.2374,0.238,0.2381,0.2361,0.2377,0.2377,0.2358,0.2337,0.2332,0.2328,0.2381,0.2382,0.2382,0,0,0.2165,0.2189,0.2182,0.2198,0.2239,0.2252,0.2269,0.2302,0.2314,0.2329,0.2345,0.2364,0.2376,0.2365,0.2365,0.2356,0.2357,0.2365,0.2345,0.2325,0.2321,0.2317,0.2308,0.2303,0.2365,0.2365,0.2365,0,0.216,0.2158,0.2182,0.2189,0.2197,0.2253,0.226,0.2268,0.2296,0.2284,0.2336,0.234,0.2361,0.2335,0.2344,0.2352,0.2349,0.2354,0.2324,0.232,0.2316,0.2307,0.2301,0.2365,0.2365,0.2365,0.2365,0,0.2139,0.2141,0.2143,0.2161,0.2169,0.2181,0.2212,0.222,0.2257,0.2252,0.2258,0.2298,0.2302,0.2313,0.2337,0.2311,0.2322,0.2328,0.2329,0.2311,0.2303,0.2297,0.2365,0.2365,0.2365,0.2365,0,0,0.2127,0.2125,0.213,0.2119,0.2157,0.2151,0.2157,0.215,0.2131,0.2177,0.2148,0.2191,0.2229,0.2231,0.2268,0.226,0.2255,0.2293,0.2292,0.2285,0.2223,0.2061,0.204,0.2266,0.2265,0.2264,0.2235,0,0.2116,0.2092,0.21,0.2076,0.2074,0.2101,0.2085,0.2077,0.2092,0.2071,0.2108,0.2112,0.2193,0.2225,0.223,0.2249,0.2238,0.2263,0.2237,0.2236,0.2095,0.2026,0.1887,0.1833,0.2229,0.2228,0.2227,0,0.2111,0.2085,0.2064,0.2013,0.2019,0.2014,0.1988,0.1984,0.1963,0.198,0.2003,0.203,0.2057,0.2127,0.2154,0.2175,0.2198,0.2207,0.2206,0.204,0.206,0.1911,0.1808,0.2218,0.2218,0.2219,0.222,0,0.2079,0.2054,0.2021,0.2014,0.1984,0.1976,0.1974,0.1958,0.1938,0.1941,0.1935,0.196,0.2001,0.2032,0.2105,0.2133,0.2104,0.214,0.2002,0.1994,0.1856,0.1834,0.2115,0.2115,0.2115,0.2115,0.2115,0,0.205,0.2019,0.2007,0.1983,0.1936,0.1948,0.1903,0.1908,0.1901,0.1848,0.1914,0.1889,0.1981,0.1987,0.205,0.2002,0.2073,0.1961,0.1951,0.1853,0.1832,0.2152,0.2156,0.2114,0.2114,0.2114,0.2114,0,0.2016,0.2011,0.1961,0.193,0.1922,0.1901,0.1875,0.1828,0.1865,0.1814,0.1824,0.1837,0.1845,0.1906,0.1933,0.1909,0.1893,0.1858,0.1736,0.1708,0.1813,0.1818,0.1674,0.1668,0.1662,0.1658,0.1654,0,0.1983,0.1967,0.1925,0.1894,0.1886,0.1856,0.1817,0.1825,0.1776,0.1764,0.1716,0.1719,0.1662,0.1634,0.1567,0.1557,0.1759,0.1449,0.1438,0.1749,0.1757,0.1771,0.1784,0.1293,0.1286,0.1281,0.1277,0,0.1922,0.1929,0.1882,0.1828,0.1788,0.1724,0.1683,0.1634,0.1625,0.1588,0.1517,0.1473,0.1379,0.1252,0.1217,0.1214,0.1432,0.133,0.168,0.1399,0.1378,0.139,0.1417,0.1229,0.1234,0.1237,0.124,0.1242,0.1876,0.1837,0.1789,0.1727,0.1685,0.1599,0.1538,0.1479,0.1396,0.1328,0.1303,0.1206,0.1121,0.0926,0.0907,0.0912,0.0983,0.1036,0.1058,0.1085,0.1018,0.0986,0.0753,0.0755,0.0757,0.0758,0.076,0,0.1786,0.1748,0.1682,0.1587,0.1502,0.154,0.1435,0.135,0.1246,0.1158,0.1087,0.0843,0.0718,0.0749,0.0593,0.0521,0.0581,0.0614,0.0729,0.077,0.0809,0.0737,0.0393,0.0393,0.0393,0.0393,0,0,0.1728,0.1637,0.1593,0.1424,0.1395,0.1308,0.1267,0.1166,0.107,0.0873,0.0787,0.0718,0.0657,0.0508,0.0454,0.0434,0.0631,0.0426,0.0703,0.0878,0.0918,0.1006,0.0931,0,0,0,0,0]},{"header":{"parameterUnit":"m.s-1","parameterCategory":2,"la1":30.2991,"la2":30.254,"lo1":-89.0895,"lo2":-89.0444,"dy":0.0017,"dx":0.0017,"nx":28,"ny":28,"refTime":"2025-06-06T09:00:00:Z","depth":"2","parameterNumber":3,"parameterNumberName":"V-component_of_CURRENTS"},"data":[0,0,0,0,0,0,0,0,0,0,0,0,0,0,0,0,0,0,0,0,0,0,0,0,0,0,0,0,0,0,0,0,0,0,0,0,0,0,0,0,0,0,0,0,0,0,0,0,0,0,0,0,0,0,0,0,0,0,0.0,0.0001,0,0.0064,0.0065,0.0065,0.0104,0.0104,0.0105,0.0106,0.0103,0.0103,0.0102,0,0,0,0,0,0,0,0,0,0,0,0,0,-0.0172,-0.0169,0.0,0.0001,0.0003,0.0064,0.0065,0.0065,0.0104,0.0104,0.0105,0.0106,0.0104,0.0103,0.0102,0,0,0,0,0,0,0,0,0,0,0,0,0,-0.0106,-0.0168,-0.0,0.0033,0.0037,0.0064,0.0065,0.0065,0.0104,0.0104,0.0105,0.0106,0.0104,0.0103,0.0102,0.0078,0,0,0.0099,0.0099,0,0,0,0,0,0,0,0,-0.011,-0.01,0.0027,0.0031,0.0035,0.0081,0.0004,0.0068,0.0103,0.0073,0.0106,0.0107,0.0092,0.0092,0.0097,0.0078,0.0078,0.0099,0.0098,0.0098,0.0098,0,0,0,0,0,0,0,-0.0114,-0.0103,0.0021,0.0028,0.0033,0.0016,0.0027,0.0015,0.0072,0.0076,0.008,0.0094,0.0093,0.0097,0.0097,0.0078,0.0099,0.0098,0.0098,0.0097,0.0047,0.0046,0,0,0,0,0,0,-0.0108,-0.0107,0.0019,0.0023,-0.0031,0.0019,0.0031,0.0062,0.0074,0.0078,0.0093,0.0096,0.0099,0.0098,0.0097,0.014,0.0098,0.0097,0.0097,0.0048,0.0047,0.0046,0,0,0,0,0,0,-0.0112,-0.0097,0.0016,-0.0038,-0.0024,0.0022,0.0056,0.0062,0.0093,0.0089,0.0091,0.0121,0.0099,0.0098,0.0127,0.0137,0.0097,0.0096,0.0048,0.0047,0.0046,0.018,0,0,0,0,0,0,-0.0117,-0.0099,-0.008,-0.0037,-0.002,0.0051,0.0056,0.0063,0.0102,0.0106,0.0112,0.0112,0.01,0.0129,0.0126,0.0135,0.0095,0.0049,0.0048,0.0047,0.0176,0.0183,0.0189,0,0,0,0,0,-0.0123,-0.0098,-0.0079,-0.0064,0.0006,0.0053,0.0059,0.009,0.0102,0.012,0.0138,0.0113,0.0115,0.0129,0.0126,0.0135,0.005,0.0048,0.0047,0.0173,0.0182,0.0189,0,0,0,0,0,0,-0.0144,-0.0089,-0.0069,-0.0021,0.0021,0.0062,0.0089,0.0103,0.0131,0.0142,0.0133,0.0134,0.0153,0.0116,0.0132,0.0105,0.0065,0.0063,0.0162,0.017,0.0176,0.0152,0.0094,0,0,0,0,0,-0.0144,-0.0133,-0.006,-0.0032,0.0012,0.0053,0.0075,0.0097,0.013,0.0144,0.0155,0.0144,0.0134,0.0138,0.0121,0.0126,0.0077,0.0113,0.012,0.0126,0.0098,0.0031,0.003,0.004,0.004,0.004,0,0,-0.0148,-0.012,-0.011,-0.0041,0.0006,0.006,0.007,0.012,0.0144,0.0136,0.0182,0.0178,0.014,0.0152,0.0152,0.0133,0.0109,0.0124,0.0131,0.0098,0.0029,0.0028,0.0027,0.0039,0.0039,0.0039,0,0,-0.0148,-0.0104,-0.0078,-0.0036,0.0034,0.0064,0.0088,0.0155,0.0177,0.0223,0.0209,0.0218,0.0222,0.0194,0.0178,0.0198,0.0148,0.0183,0.0206,0.0144,0.0143,0.0141,0.0144,0.0141,0.0186,0.0186,0.0187,0,-0.0148,-0.0101,-0.0064,-0.0014,0.0025,0.0076,0.0134,0.0157,0.0211,0.0214,0.0251,0.024,0.0232,0.0206,0.0224,0.0215,0.0188,0.0199,0.0156,0.0152,0.0148,0.0151,0.0146,0.0193,0.0192,0.0191,0.0191,0,-0.0109,-0.0072,-0.004,0.003,0.0072,0.0126,0.0187,0.0221,0.0264,0.0268,0.0283,0.0294,0.0282,0.0277,0.0272,0.0227,0.0226,0.0182,0.015,0.0156,0.0158,0.0151,0.0202,0.0199,0.0197,0.0196,0,0,-0.0091,-0.0028,-0.0011,0.0008,0.0105,0.0134,0.0194,0.0239,0.025,0.0298,0.0308,0.0315,0.032,0.0296,0.0288,0.0236,0.0234,0.0209,0.0202,0.0236,0.0143,0.0218,0.0217,0.0189,0.0187,0.0185,0.0182,0,-0.0055,0.0009,0.004,0.0093,0.0147,0.0195,0.0237,0.0261,0.0295,0.031,0.0302,0.0311,0.0326,0.0345,0.0303,0.0241,0.0208,0.0241,0.0106,0.0103,0.0187,0.0207,0.0163,0.016,0.0175,0.0173,0.0172,0,0.0001,0.0023,0.0098,0.0113,0.0149,0.0188,0.0247,0.0287,0.0303,0.0332,0.0342,0.0329,0.0312,0.0309,0.023,0.0256,0.0206,0.0153,0.0151,0.0152,0.016,0.0137,0.0146,0.0159,0.0161,0.0161,0.0162,0,-0.0001,0.0055,0.0098,0.012,0.0175,0.021,0.0254,0.0296,0.0318,0.0348,0.0369,0.0336,0.0353,0.027,0.0235,0.0219,0.0129,0.009,0.0107,0.0115,0.001,0.0012,-0.0012,-0.0012,-0.0012,-0.0012,-0.0012,0,0.0027,0.0051,0.0099,0.0123,0.0153,0.0216,0.0248,0.0298,0.0352,0.0363,0.0391,0.0405,0.0332,0.0291,0.023,0.0193,0.0143,0.011,0.0104,0.0065,0.0071,-0.0009,-0.0009,-0.0012,-0.0012,-0.0012,-0.0012,0,0.0026,0.0066,0.0091,0.0143,0.0158,0.0194,0.025,0.0266,0.0358,0.0389,0.0407,0.044,0.0433,0.0373,0.0251,0.0214,0.0139,0.0123,0.0133,0.0129,0.0168,0.0174,0.0131,0.0134,0.0136,0.0137,0.0139,0,0.0034,0.006,0.0093,0.0099,0.0129,0.017,0.0197,0.0276,0.0299,0.0408,0.0419,0.0449,0.0487,0.0424,0.0307,0.0238,0.0212,0.0164,0.0106,0.0177,0.0175,0.0179,0.0183,0.0042,0.0042,0.0043,0.0043,0,0.0028,0.0052,0.0059,0.0074,0.0096,0.0102,0.0156,0.0177,0.0281,0.0353,0.0456,0.0512,0.049,0.0419,0.0358,0.0291,0.018,0.0173,0.0192,0.0036,0.0097,0.0095,0.01,0.0046,0.0046,0.0046,0.0045,0.0045,0.0012,0.0001,0.0012,0.0019,0.0047,0.0073,0.01,0.0167,0.0251,0.0417,0.0448,0.0568,0.0456,0.0388,0.0325,0.0248,0.0218,0.0157,0.0152,0.0148,0.0161,0.0224,0.0203,0.0203,0.0204,0.0204,0.0205,0,-0.004,-0.0044,-0.0051,-0.0049,-0.0026,0.0026,0.009,0.0145,0.0277,0.0418,0.0557,0.0483,0.0455,0.0393,0.0251,0.0181,0.0138,0.0199,0.0117,0.0113,0.0109,0.0118,0.015,0.015,0.0151,0.0151,0,0,-0.0078,-0.0113,-0.0129,-0.0126,-0.0076,-0.0013,0.0057,0.0187,0.0295,0.0465,0.0556,0.0601,0.0465,0.0351,0.0245,0.021,0.0196,0.0217,0.0252,0.016,0.0159,0.0061,0.0068,0,0,0,0,0]}],[{"header":{"parameterUnit":"m.s-1","parameterCategory":2,"la1":30.2991,"la2":30.254,"lo1":-89.0895,"lo2":-89.0444,"dy":0.0017,"dx":0.0017,"nx":28,"ny":28,"refTime":"2025-06-06T09:00:00:Z","depth":"4","parameterNumber":2,"parameterNumberName":"U-component_of_CURRENTS"},"data":[0,0,0,0,0,0,0,0,0,0,0,0,0,0,0,0,0,0,0,0,0,0,0,0,0,0,0,0,0,0,0,0,0,0,0,0,0,0,0,0,0,0,0,0,0,0,0,0,0,0,0,0,0,0,0,0,0,0,-0.0275,-0.0274,0,-0.0233,-0.0233,-0.0232,-0.0173,-0.0172,-0.0171,-0.017,-0.0136,-0.0136,-0.0136,0,0,0,0,0,0,0,0,0,0,0,0,0,-0.0283,-0.0283,-0.0275,-0.0274,-0.0274,-0.0234,-0.0233,-0.0232,-0.0173,-0.0172,-0.0171,-0.017,-0.0136,-0.0136,-0.0136,0,0,0,0,0,0,0,0,0,0,0,0,0,-0.0264,-0.0283,-0.0275,-0.024,-0.0236,-0.0234,-0.0233,-0.0232,-0.0174,-0.0172,-0.0171,-0.0169,-0.0136,-0.0136,-0.0136,-0.0165,0,0,-0.0136,-0.0136,0,0,0,0,0,0,0,0,-0.0265,-0.0264,-0.0246,-0.0242,-0.0238,-0.0207,-0.0223,-0.021,-0.0174,-0.0197,-0.017,-0.0169,-0.0162,-0.016,-0.0154,-0.0163,-0.0162,-0.0136,-0.0136,-0.0136,-0.0136,0,0,0,0,0,0,0,-0.0266,-0.0265,-0.0258,-0.0245,-0.0241,-0.022,-0.0215,-0.022,-0.0188,-0.0195,-0.019,-0.0187,-0.016,-0.0154,-0.0153,-0.0161,-0.0136,-0.0136,-0.0136,-0.0136,-0.0117,-0.0116,0,0,0,0,0,0,-0.0275,-0.0267,-0.0259,-0.0257,-0.0249,-0.0221,-0.0216,-0.0218,-0.0187,-0.0181,-0.0189,-0.0185,-0.0155,-0.0153,-0.0151,-0.0094,-0.0136,-0.0136,-0.0135,-0.0117,-0.0117,-0.0116,0,0,0,0,0,0,-0.0276,-0.0276,-0.0261,-0.026,-0.0257,-0.0222,-0.0225,-0.0218,-0.0178,-0.0183,-0.0176,-0.0151,-0.0154,-0.0151,-0.0127,-0.0096,-0.0135,-0.0135,-0.0118,-0.0117,-0.0117,-0.0038,0,0,0,0,0,0,-0.0277,-0.0276,-0.0275,-0.0261,-0.0257,-0.0238,-0.0227,-0.0219,-0.0181,-0.0174,-0.015,-0.0147,-0.0152,-0.0127,-0.0127,-0.0097,-0.0135,-0.0119,-0.0118,-0.0117,-0.0041,-0.0035,-0.0029,0,0,0,0,0,-0.0277,-0.0281,-0.0275,-0.0274,-0.0259,-0.0238,-0.0233,-0.0203,-0.018,-0.0161,-0.0142,-0.0146,-0.0122,-0.0127,-0.0127,-0.0095,-0.0119,-0.0118,-0.0117,-0.0044,-0.0036,-0.0029,0,0,0,0,0,0,-0.0281,-0.0276,-0.0268,-0.027,-0.0246,-0.0227,-0.0212,-0.0187,-0.0157,-0.0142,-0.0139,-0.0136,-0.0105,-0.0118,-0.0123,-0.0091,-0.0122,-0.012,-0.0066,-0.0059,-0.0053,-0.0024,-0.0135,0,0,0,0,0,-0.0286,-0.0286,-0.027,-0.0268,-0.0257,-0.0228,-0.0212,-0.0185,-0.0162,-0.0144,-0.012,-0.0109,-0.0109,-0.0095,-0.0097,-0.0077,-0.0104,-0.006,-0.0054,-0.0048,-0.0027,-0.0055,-0.0049,-0.0113,-0.0113,-0.0113,0,0,-0.0287,-0.0283,-0.0283,-0.0268,-0.0249,-0.0224,-0.0213,-0.0177,-0.014,-0.015,-0.0085,-0.0086,-0.0101,-0.0076,-0.0064,-0.0075,-0.0047,-0.0047,-0.0042,-0.0023,-0.0053,-0.0047,-0.0041,-0.0112,-0.0112,-0.0112,0,0,-0.0287,-0.0284,-0.0279,-0.0258,-0.0225,-0.0206,-0.0187,-0.0142,-0.0105,-0.0056,-0.0059,-0.0037,-0.0016,-0.0021,-0.0026,0.0008,-0.0019,0.0011,0.0076,0.0048,0.0054,0.0058,0.0022,0.0023,0.002,0.0021,0.0021,0,-0.0284,-0.0277,-0.0271,-0.0252,-0.0224,-0.0192,-0.0158,-0.0128,-0.0071,-0.0035,-0.0022,0.0018,0.0008,0.0024,0.0046,0.0025,0.0005,0.0053,0.0058,0.0062,0.0065,0.0027,0.0027,0.0024,0.0024,0.0024,0.0023,0,-0.0277,-0.0259,-0.025,-0.0217,-0.0187,-0.0152,-0.011,-0.0058,-0.0004,0.0033,0.0091,0.0085,0.0119,0.0108,0.0096,0.0118,0.0094,0.0064,0.0044,0.0077,0.0033,0.0032,0.003,0.0029,0.0027,0.0026,0,0,-0.029,-0.0253,-0.0245,-0.0211,-0.0158,-0.0126,-0.0066,0.0,0.006,0.0114,0.0184,0.0193,0.0222,0.0218,0.0202,0.0183,0.0183,0.0155,0.0152,0.0129,0.0126,0.0086,0.0079,0.0162,0.0162,0.0163,0.0083,0,-0.0274,-0.024,-0.0215,-0.0149,-0.0119,-0.0063,-0.0005,0.0062,0.0125,0.0198,0.0209,0.0265,0.0252,0.0286,0.027,0.0206,0.0185,0.0208,0.0091,0.0088,0.0055,0.0078,0.0164,0.0081,0.0081,0.0081,0.008,0,-0.0267,-0.024,-0.0185,-0.0099,-0.0076,-0.0015,0.0098,0.0155,0.024,0.0292,0.0353,0.0371,0.0388,0.0359,0.0292,0.0314,0.0246,0.018,0.0174,0.0115,0.0045,0.0042,0.0077,0.0077,0.0077,0.0077,0.0078,0,-0.028,-0.021,-0.0159,-0.0132,-0.0039,0.0034,0.0107,0.0204,0.0252,0.037,0.0405,0.0446,0.0452,0.0399,0.0283,0.0311,0.0159,0.0169,0.0059,0.0054,0.0079,0.0075,0.0111,0.0111,0.0111,0.0112,0.0112,0,-0.027,-0.0231,-0.0144,-0.0115,-0.0019,0.0063,0.0172,0.0251,0.0342,0.0364,0.047,0.0434,0.0464,0.0378,0.0295,0.0159,0.0168,0.0083,0.0039,0.011,0.0111,0.0076,0.0073,0.0109,0.0109,0.011,0.011,0,-0.0291,-0.0248,-0.0191,-0.0075,-0.0026,0.0056,0.0189,0.0242,0.0355,0.0381,0.0419,0.0435,0.0347,0.0312,0.0184,0.0153,0.0029,-0.0041,0.0022,-0.0021,-0.0045,-0.0043,-0.0088,-0.009,-0.0091,-0.0093,-0.0094,0,-0.0292,-0.0271,-0.018,-0.0145,-0.0076,0.0044,0.0103,0.0239,0.0268,0.0302,0.0275,0.0256,0.0241,0.0067,0.001,-0.0081,-0.0114,-0.0123,-0.0027,-0.0023,-0.0062,-0.0057,-0.0053,-0.0097,-0.0097,-0.0097,-0.0098,0,-0.0301,-0.0284,-0.0248,-0.0188,-0.011,-0.0039,0.006,0.0084,0.0183,0.0243,0.0186,0.0169,0.0057,0.0001,-0.0054,-0.0159,-0.0059,-0.0139,-0.0134,-0.0043,-0.0034,-0.007,-0.0064,-0.0103,-0.0103,-0.0102,-0.0102,0,-0.0314,-0.0306,-0.0279,-0.0208,-0.0165,-0.0111,-0.0043,0.0003,0.0065,0.0141,0.0043,0.0009,-0.0002,-0.006,-0.0188,-0.0192,-0.016,-0.0108,-0.0103,-0.0097,-0.0065,-0.0052,-0.0155,0,0,0,0,0,-0.0306,-0.0309,-0.0294,-0.0225,-0.0208,-0.0159,-0.0088,-0.003,0.0033,0.0007,0.0076,-0.003,-0.0086,-0.0161,-0.0166,-0.0236,-0.0191,-0.0244,-0.0134,-0.0134,-0.0128,-0.009,0,0,0,0,0,0,-0.0306,-0.031,-0.0306,-0.0267,-0.0236,-0.0188,-0.0142,-0.0095,-0.008,-0.0031,-0.0074,-0.0027,-0.0112,-0.0083,-0.0173,-0.0184,-0.0109,-0.0265,-0.0264,-0.0138,-0.0132,-0.0127,-0.0086,0,0,0,0,0]},{"header":{"parameterUnit":"m.s-1","parameterCategory":2,"la1":30.2991,"la2":30.254,"lo1":-89.0895,"lo2":-89.0444,"dy":0.0017,"dx":0.0017,"nx":28,"ny":28,"refTime":"2025-06-06T09:00:00:Z","depth":"4","parameterNumber":3,"parameterNumberName":"V-component_of_CURRENTS"},"data":[0,0,0,0,0,0,0,0,0,0,0,0,0,0,0,0,0,0,0,0,0,0,0,0,0,0,0,0,0,0,0,0,0,0,0,0,0,0,0,0,0,0,0,0,0,0,0,0,0,0,0,0,0,0,0,0,0,0,0.0316,0.0316,0,0.0305,0.0304,0.0304,0.0285,0.0284,0.0284,0.0284,0.0214,0.0212,0.021,0,0,0,0,0,0,0,0,0,0,0,0,0,0.0297,0.0298,0.0316,0.0316,0.0317,0.0305,0.0304,0.0304,0.0285,0.0284,0.0284,0.0284,0.0214,0.0212,0.021,0,0,0,0,0,0,0,0,0,0,0,0,0,0.0295,0.0298,0.0316,0.0308,0.0307,0.0305,0.0304,0.0304,0.0285,0.0284,0.0284,0.0284,0.0215,0.0212,0.021,0.0196,0,0,0.0201,0.02,0,0,0,0,0,0,0,0,0.0295,0.0295,0.0309,0.0308,0.0308,0.0298,0.0272,0.0266,0.0285,0.029,0.0284,0.0284,0.0238,0.0234,0.0229,0.0192,0.0189,0.0201,0.0199,0.0198,0.0198,0,0,0,0,0,0,0,0.0295,0.0296,0.0309,0.0309,0.0308,0.0296,0.0295,0.027,0.0262,0.029,0.0289,0.0292,0.0237,0.0231,0.0227,0.0188,0.0201,0.0199,0.0197,0.0196,0.0086,0.0084,0,0,0,0,0,0,0.0304,0.0296,0.0309,0.0309,0.0304,0.0297,0.0296,0.0299,0.0263,0.0259,0.0292,0.0291,0.0236,0.023,0.0224,0.0159,0.0198,0.0196,0.0194,0.0087,0.0085,0.0084,0,0,0,0,0,0,0.0304,0.0305,0.031,0.0304,0.0304,0.0298,0.0301,0.0299,0.0282,0.0267,0.0261,0.0276,0.0236,0.0228,0.0182,0.0158,0.0195,0.0192,0.0089,0.0087,0.0085,0.006,0,0,0,0,0,0,0.0303,0.0305,0.0317,0.0305,0.0305,0.0303,0.0302,0.0299,0.0286,0.0284,0.0251,0.0245,0.0235,0.0186,0.018,0.0155,0.019,0.009,0.0088,0.0085,0.0062,0.0057,0.0053,0,0,0,0,0,0.0302,0.0313,0.0318,0.032,0.0319,0.0303,0.0301,0.0294,0.0285,0.0277,0.0245,0.0245,0.0166,0.0183,0.0175,0.015,0.0091,0.0088,0.0086,0.0064,0.0058,0.0053,0,0,0,0,0,0,0.031,0.0312,0.0317,0.0328,0.0317,0.0301,0.0302,0.0286,0.0256,0.0248,0.0227,0.0218,0.0169,0.0161,0.0181,0.011,0.0129,0.0125,0.0116,0.011,0.0105,0.0115,0.0188,0,0,0,0,0,0.0319,0.0328,0.0321,0.0329,0.0326,0.031,0.0305,0.029,0.0263,0.0249,0.0216,0.0184,0.0153,0.0133,0.0104,0.0066,0.0075,0.0045,0.004,0.0036,0.0038,0.0026,0.0021,0.0074,0.0074,0.0074,0,0,0.0324,0.0329,0.0333,0.0332,0.0326,0.0311,0.0305,0.0287,0.0263,0.0245,0.0193,0.0162,0.0138,0.0093,0.007,0.0082,0.0026,0.0032,0.0029,0.0033,0.0023,0.0018,0.0013,0.0072,0.0073,0.0073,0,0,0.0329,0.0342,0.0346,0.0335,0.0324,0.0309,0.0299,0.0264,0.0242,0.0189,0.0169,0.0124,0.0071,0.0049,0.0034,-0.0014,-0.0001,-0.0027,-0.0042,-0.0054,-0.0058,-0.0061,-0.005,-0.0052,-0.0027,-0.0027,-0.0027,0,0.0337,0.0342,0.0342,0.0336,0.0327,0.0304,0.0287,0.0262,0.0208,0.0184,0.0167,0.0078,0.0052,0.0009,-0.0012,-0.0024,-0.0019,-0.0017,-0.0058,-0.0062,-0.0065,-0.0052,-0.0054,-0.0029,-0.0029,-0.0028,-0.0028,0,0.0333,0.0339,0.0338,0.0325,0.0311,0.0293,0.0259,0.0224,0.0185,0.0153,0.0086,0.0042,-0.0002,-0.0027,-0.0037,-0.0077,-0.0062,-0.0063,-0.0039,-0.0071,-0.0057,-0.0058,-0.0031,-0.003,-0.003,-0.003,0,0,0.0339,0.0338,0.0339,0.0335,0.0301,0.0287,0.0244,0.0202,0.0177,0.0106,0.0064,-0.0006,-0.003,-0.0048,-0.0072,-0.0094,-0.0116,-0.0091,-0.0091,-0.007,-0.0126,-0.011,-0.0109,-0.0124,-0.0125,-0.0125,-0.0103,0,0.0336,0.034,0.0327,0.0309,0.03,0.0266,0.0234,0.0189,0.0143,0.0093,0.0037,-0.0003,-0.0034,-0.0053,-0.0088,-0.012,-0.0123,-0.0121,-0.0106,-0.0105,-0.0079,-0.0112,-0.0127,-0.0105,-0.0105,-0.0105,-0.0105,0,0.0327,0.0334,0.0333,0.031,0.0302,0.0286,0.0238,0.0206,0.0141,0.0104,0.0046,0.0007,-0.0053,-0.0061,-0.0122,-0.012,-0.0118,-0.0134,-0.0134,-0.011,-0.0093,-0.0069,-0.0108,-0.0108,-0.0108,-0.0107,-0.0107,0,0.0336,0.0329,0.0337,0.0329,0.0302,0.0289,0.0268,0.0212,0.0192,0.0128,0.0101,0.0021,-0.0012,-0.0051,-0.01,-0.0107,-0.0151,-0.0157,-0.0129,-0.0127,-0.0133,-0.0129,-0.0162,-0.0162,-0.0162,-0.0162,-0.0162,0,0.0322,0.0328,0.0352,0.0354,0.0351,0.0319,0.0307,0.0267,0.0225,0.0176,0.0126,0.0051,-0.0012,-0.0058,-0.0092,-0.0125,-0.0137,-0.0134,-0.0127,-0.0144,-0.0142,-0.0133,-0.013,-0.0161,-0.0161,-0.0161,-0.0162,0,0.0312,0.0334,0.0352,0.0357,0.036,0.0361,0.0351,0.033,0.0297,0.0231,0.0216,0.0093,0.001,-0.0018,-0.0083,-0.0101,-0.0133,-0.0119,-0.0118,-0.0111,-0.0098,-0.0097,-0.0103,-0.0103,-0.0102,-0.0102,-0.0101,0,0.0298,0.0319,0.0371,0.0387,0.0393,0.0402,0.0394,0.037,0.0324,0.0214,0.0152,0.009,0.0005,-0.0074,-0.0111,-0.0115,-0.0109,-0.0095,-0.0121,-0.0103,-0.0096,-0.0095,-0.0095,-0.01,-0.01,-0.01,-0.01,0,0.0272,0.0322,0.0333,0.0378,0.0394,0.0406,0.0376,0.034,0.0262,0.0274,0.0092,0.0034,-0.0046,-0.0121,-0.0075,-0.0103,-0.0108,-0.009,-0.0092,-0.0116,-0.01,-0.0093,-0.0093,-0.0098,-0.0099,-0.0099,-0.0099,0,0.0257,0.027,0.0307,0.0335,0.0375,0.0347,0.0344,0.0259,0.0225,0.0104,0.0026,-0.0059,-0.0099,-0.0117,-0.0129,-0.0098,-0.0105,-0.0103,-0.0104,-0.0105,-0.0115,-0.0096,-0.0092,0,0,0,0,0,0.0225,0.0229,0.0251,0.0269,0.0314,0.0339,0.0291,0.0268,0.0197,0.0082,0.0061,-0.0025,-0.0075,-0.0138,-0.0103,-0.0116,-0.0088,-0.0075,-0.0082,-0.0089,-0.0091,-0.0101,0,0,0,0,0,0,0.0198,0.0212,0.0223,0.0216,0.0235,0.0251,0.0229,0.0178,0.0094,0.0036,-0.0,0.0017,-0.0032,-0.0058,-0.0084,-0.0083,-0.0082,-0.0079,-0.0078,-0.0088,-0.009,-0.0091,-0.0102,0,0,0,0,0]}]]